Find Starlink 5623

NORAD ID: 55405 Int'l Des: 2023-014 Owner: SPXS Country: US Constellation: starlink operational
LEOCIRCULAR

現在のビュー

3D地球を読み込み中...

About Starlink 5623

Starlink 5623 (NORAD 55405) is a starlink constellation satellite (v1.5) launched Jan 31, 2023 by SPXS of US. It operates in LEO, CIRCULAR orbit with a mass of 305.00 kg.

Starlink 5623について

説明を読み込み中...

次回通過

Passes for default location (London). Set your location on the main map for personalized predictions.

高度履歴

Loading altitude history...

軌道要素

1 55405U 23014Q 26166.28724897 .00000244 00000-0 28266-4 0 9995
2 55405 69.9991 178.4140 0003878 266.7427 93.3288 14.98329003186679
Epoch: Jun 15, 2026 • Age: 7 hours

現在のステータス

高度 578.3 km
速度 7.57 km/s
衛星直下点 37.58°N, 131.23°W
打ち上げ日 Jan 31, 2023
運用期間 3.3 years
タイプ internet

技術仕様

分類 Payload
質量 305.00 kg
乾燥質量 290.00 kg
総質量 305.00 kg
長さ 0.20 m
直径 2.80 m
スパン 9.00 m
形状 Box + pan
製造者 SPXS
バスタイプ Starlink
フェーズステータス In Orbit
所有者/国 SPXS/US

Most Searched